Location: Olda
(45.8833°N, 9.5500°E)
Time: 15:10:47
(UTC+00:00)

NOSS 3-3 (A) - Pass Details

Date: 03 March 2021
Orbit: 816 x 1396 km, 63.4° (Epoch: 19 March)

Event Time Altitude Azimuth Distance (km) Brightness Sun altitude
Rises 20:08:29 0° 321° (NW) 3,955 8.1 -30.9°
Reaches altitude 10° 20:11:03 10° 322° (NW) 3,071 7.3 -31.3°
Maximum altitude 20:18:35 81° 51° (NE) 1,292 4.4 -32.5°
Enters shadow 20:18:42 81° 66° (ENE) 1,294 4.4 -32.5°
